Retour au catalogue

STARLINK-4451

ActifCommunicationsPO
NORAD 53492·PAYLOAD·🇺🇸 United States

Lancé Aug 12, 2022 depuis Vandenberg Space Force Base

Loading…

Prochains Passages (prochaines 24 heures)

TLE

FraisSource: CelesTrak SupGP

Époque: Sep 14, 2026, 14:17 UTC

1 53492C 22099AD  26257.59562500  .00870690  00000+0  61374-3 0  2579
2 53492  97.5962  27.4335 0005584 323.8605  66.6694 16.15756119    16

Suivez STARLINK-4451 en temps réel avec AllMySat

Download on the App Store